Location: Unspecified
(34.4950°S, 58.5160°W)
Time: 19:18:11
(UTC+00:00)

Cosmos 372 Rocket - Pass Details

Date: 04 December 2021
Orbit: 737 x 768 km, 74.1° (Epoch: 28 January)

Event Time Altitude Azimuth Distance (km) Brightness Sun altitude
Rises 23:45:25 0° 339° (NNW) 3,224 7.1 -9.7°
Reaches altitude 10° 23:47:47 10° 336° (NNW) 2,304 6.4 -10.1°
Maximum altitude 23:53:00 70° 252° (WSW) 819 4.4 -10.9°
Drops below altitude 10° 23:58:16 10° 168° (SSE) 2,317 6.8 -11.8°
Sets 00:00:40 0° 165° (SSE) 3,244 7.6 -12.2°
